[[{"header":{"parameterUnit":"m.s-1","parameterCategory":1,"la1":30.2991,"la2":30.254,"lo1":-89.0895,"lo2":-89.0444,"dy":0.0017,"dx":0.0017,"nx":28,"ny":28,"refTime":"2023-09-07T03:00:00:Z","depth":0,"parameterNumber":2,"parameterNumberName":"U-component_of_WINDS"},"data":[0,0,0,0,0,0,0,0,0,0,0,0,0,0,0,0,0,0,0,0,0,0,0,0,0,0,0,0,0,0,0,0,0,0,0,0,0,0,0,0,0,0,0,0,0,0,0,0,0,0,0,0,0,0,0,0,0,0,-0.5464,-0.5464,0,-0.5461,-0.5461,-0.5461,-0.5427,-0.5427,-0.5426,-0.5425,-0.5423,-0.5424,-0.5425,0,0,0,0,0,0,0,0,0,0,0,0,0,-0.5444,-0.5445,-0.5464,-0.5464,-0.5464,-0.5461,-0.5461,-0.5461,-0.5428,-0.5427,-0.5426,-0.5425,-0.5423,-0.5424,-0.5425,0,0,0,0,0,0,0,0,0,0,0,0,0,-0.5448,-0.5445,-0.5464,-0.5447,-0.5446,-0.5461,-0.5461,-0.5461,-0.5428,-0.5427,-0.5425,-0.5424,-0.5423,-0.5424,-0.5425,-0.5457,0,0,-0.5429,-0.5429,0,0,0,0,0,0,0,0,-0.5448,-0.5449,-0.545,-0.5448,-0.5447,-0.5443,-0.5453,-0.546,-0.5428,-0.5435,-0.5425,-0.5423,-0.5431,-0.5432,-0.5434,-0.5457,-0.5457,-0.5429,-0.5429,-0.543,-0.543,0,0,0,0,0,0,0,-0.5448,-0.5449,-0.5463,-0.545,-0.5448,-0.5441,-0.544,-0.5454,-0.544,-0.5434,-0.5432,-0.5432,-0.543,-0.5433,-0.5434,-0.5457,-0.5429,-0.543,-0.543,-0.5431,-0.5509,-0.551,0,0,0,0,0,0,-0.545,-0.5449,-0.5463,-0.5463,-0.5444,-0.5442,-0.5441,-0.5446,-0.544,-0.5438,-0.5433,-0.543,-0.5432,-0.5432,-0.5433,-0.5472,-0.543,-0.5431,-0.5431,-0.5507,-0.5509,-0.551,0,0,0,0,0,0,-0.5449,-0.5451,-0.5463,-0.5455,-0.5456,-0.5444,-0.5449,-0.5446,-0.5449,-0.5439,-0.5436,-0.5438,-0.5431,-0.5432,-0.5452,-0.5471,-0.5431,-0.5432,-0.5506,-0.5508,-0.551,-0.5548,0,0,0,0,0,0,-0.5449,-0.5451,-0.5463,-0.5456,-0.5457,-0.5481,-0.545,-0.5447,-0.5451,-0.5447,-0.5443,-0.5441,-0.543,-0.545,-0.5453,-0.5472,-0.5433,-0.5504,-0.5507,-0.5509,-0.5545,-0.5551,-0.5557,0,0,0,0,0,-0.5448,-0.5474,-0.5464,-0.5466,-0.5471,-0.5483,-0.5483,-0.5469,-0.5452,-0.5464,-0.5458,-0.5441,-0.5469,-0.5453,-0.5455,-0.5475,-0.5503,-0.5506,-0.5509,-0.5543,-0.555,-0.5557,0,0,0,0,0,0,-0.5484,-0.5473,-0.5461,-0.5485,-0.5485,-0.5477,-0.5491,-0.5477,-0.5482,-0.5479,-0.5461,-0.5461,-0.5484,-0.5481,-0.5464,-0.5507,-0.5483,-0.5487,-0.5507,-0.5515,-0.552,-0.5521,-0.5434,0,0,0,0,0,-0.5495,-0.5504,-0.5494,-0.5516,-0.5517,-0.5504,-0.5509,-0.5498,-0.5497,-0.5497,-0.5492,-0.5493,-0.5502,-0.5508,-0.5515,-0.5545,-0.5544,-0.5559,-0.5565,-0.557,-0.5574,-0.559,-0.5597,-0.5521,-0.5521,-0.5521,0,0,-0.5517,-0.5512,-0.5519,-0.5523,-0.5522,-0.5533,-0.5504,-0.5517,-0.5526,-0.5499,-0.5518,-0.5515,-0.5514,-0.5539,-0.555,-0.5538,-0.5595,-0.5574,-0.5578,-0.5579,-0.5594,-0.5602,-0.5608,-0.5523,-0.5523,-0.5522,0,0,-0.5563,-0.556,-0.5578,-0.5578,-0.5576,-0.5567,-0.5572,-0.5566,-0.5563,-0.5581,-0.5562,-0.5572,-0.5587,-0.5588,-0.5591,-0.5638,-0.5624,-0.5641,-0.5671,-0.5688,-0.5694,-0.5699,-0.5717,-0.5724,-0.5645,-0.5645,-0.5645,0,-0.5591,-0.5606,-0.559,-0.5604,-0.5607,-0.5583,-0.5603,-0.5603,-0.5604,-0.5607,-0.5593,-0.5613,-0.5611,-0.5636,-0.5648,-0.5651,-0.5656,-0.5642,-0.5694,-0.5699,-0.5704,-0.5721,-0.5728,-0.5647,-0.5647,-0.5647,-0.5646,0,-0.5642,-0.5653,-0.5668,-0.5669,-0.5674,-0.5691,-0.5678,-0.5685,-0.5674,-0.5667,-0.5687,-0.5684,-0.5691,-0.5696,-0.5685,-0.5721,-0.5713,-0.5697,-0.5673,-0.5714,-0.573,-0.5736,-0.565,-0.565,-0.5649,-0.5648,0,0,-0.571,-0.5702,-0.5708,-0.5709,-0.5706,-0.5714,-0.5731,-0.5737,-0.5744,-0.5746,-0.576,-0.5773,-0.5759,-0.5762,-0.5751,-0.5765,-0.5805,-0.5747,-0.5747,-0.5759,-0.5845,-0.5858,-0.5865,-0.5795,-0.5796,-0.5797,-0.5845,0,-0.5756,-0.5782,-0.5768,-0.5797,-0.5808,-0.5786,-0.58,-0.58,-0.5795,-0.5804,-0.5798,-0.5808,-0.5787,-0.5789,-0.5802,-0.5797,-0.5822,-0.5793,-0.5809,-0.5809,-0.581,-0.5873,-0.5887,-0.5933,-0.5851,-0.5852,-0.5853,0,-0.5812,-0.5816,-0.5846,-0.5841,-0.5845,-0.5858,-0.5864,-0.5872,-0.5872,-0.5867,-0.5871,-0.5857,-0.5874,-0.5849,-0.5873,-0.5854,-0.586,-0.5858,-0.586,-0.5861,-0.5834,-0.5878,-0.5947,-0.5954,-0.5862,-0.5861,-0.5861,0,-0.5861,-0.5873,-0.5893,-0.5894,-0.5889,-0.5899,-0.5897,-0.5896,-0.5901,-0.5906,-0.5909,-0.5916,-0.592,-0.5926,-0.5915,-0.5898,-0.5941,-0.5915,-0.5939,-0.5939,-0.5949,-0.5949,-0.6021,-0.5951,-0.5951,-0.5951,-0.5951,0,-0.5914,-0.5933,-0.5915,-0.5927,-0.5949,-0.5933,-0.5955,-0.5951,-0.595,-0.5962,-0.5943,-0.5955,-0.594,-0.595,-0.5942,-0.5963,-0.5965,-0.5963,-0.596,-0.5965,-0.5965,-0.5969,-0.5966,-0.5953,-0.5952,-0.5952,-0.5952,0,-0.5972,-0.596,-0.5981,-0.5974,-0.5973,-0.5989,-0.5984,-0.5996,-0.5989,-0.6004,-0.6007,-0.5997,-0.6008,-0.5998,-0.6009,-0.6003,-0.6033,-0.6025,-0.6032,-0.6031,-0.6055,-0.6053,-0.6133,-0.6143,-0.6066,-0.6066,-0.6067,0,-0.6007,-0.6021,-0.6016,-0.6022,-0.6022,-0.6032,-0.6037,-0.6022,-0.6029,-0.603,-0.6042,-0.6052,-0.6059,-0.6079,-0.6073,-0.6082,-0.6075,-0.6103,-0.6077,-0.6081,-0.6077,-0.6077,-0.6079,-0.6108,-0.6109,-0.611,-0.611,0,-0.607,-0.6064,-0.6072,-0.6078,-0.6084,-0.6088,-0.6091,-0.6097,-0.6082,-0.609,-0.6101,-0.6107,-0.6118,-0.6129,-0.6136,-0.6135,-0.6121,-0.6119,-0.6125,-0.613,-0.6134,-0.6134,-0.6048,-0.6117,-0.6116,-0.6116,-0.6116,-0.6115,-0.6119,-0.6131,-0.613,-0.6139,-0.6139,-0.6142,-0.6153,-0.6148,-0.6157,-0.6164,-0.6155,-0.617,-0.617,-0.6178,-0.6179,-0.6191,-0.618,-0.6188,-0.6191,-0.6193,-0.6197,-0.6131,-0.6192,-0.6192,-0.6192,-0.6191,-0.6191,0,-0.6183,-0.6181,-0.6189,-0.6193,-0.6201,-0.6186,-0.6188,-0.6196,-0.6209,-0.621,-0.6217,-0.6231,-0.6241,-0.6236,-0.6246,-0.6256,-0.625,-0.6259,-0.6259,-0.6259,-0.6206,-0.62,-0.6264,-0.6264,-0.6264,-0.6264,-0.6264,-0.6264,-0.6217,-0.6237,-0.6231,-0.6252,-0.6249,-0.6263,-0.6266,-0.6269,-0.627,-0.6286,-0.6294,-0.629,-0.629,-0.6299,-0.6308,-0.6306,-0.6311,-0.6323,-0.632,-0.627,-0.6263,-0.6256,-0.6251,-0.6324,-0.6324,-0.6372,-0.6373,-0.6373]},{"header":{"parameterUnit":"m.s-1","parameterCategory":1,"la1":30.2991,"la2":30.254,"lo1":-89.0895,"lo2":-89.0444,"dy":0.0017,"dx":0.0017,"nx":28,"ny":28,"refTime":"2023-09-07T03:00:00:Z","depth":0,"parameterNumber":3,"parameterNumberName":"V-component_of_WINDS"},"data":[0,0,0,0,0,0,0,0,0,0,0,0,0,0,0,0,0,0,0,0,0,0,0,0,0,0,0,0,0,0,0,0,0,0,0,0,0,0,0,0,0,0,0,0,0,0,0,0,0,0,0,0,0,0,0,0,0,0,3.2844,3.2844,0,3.2864,3.2865,3.2865,3.2855,3.2855,3.2854,3.2854,3.2872,3.2873,3.2874,0,0,0,0,0,0,0,0,0,0,0,0,0,3.2793,3.2794,3.2844,3.2844,3.2844,3.2864,3.2865,3.2865,3.2855,3.2855,3.2854,3.2853,3.2872,3.2873,3.2874,0,0,0,0,0,0,0,0,0,0,0,0,0,3.2815,3.2795,3.2844,3.2842,3.2842,3.2864,3.2865,3.2865,3.2855,3.2855,3.2854,3.2853,3.2871,3.2873,3.2874,3.2899,0,0,3.2879,3.2879,0,0,0,0,0,0,0,0,3.2813,3.2817,3.2842,3.2842,3.2842,3.2856,3.2854,3.2876,3.2855,3.285,3.2854,3.2853,3.2867,3.2869,3.2875,3.29,3.2901,3.2879,3.288,3.288,3.2881,0,0,0,0,0,0,0,3.2812,3.2816,3.2852,3.2842,3.2842,3.2839,3.2841,3.2858,3.2863,3.2851,3.285,3.2853,3.2867,3.2873,3.2875,3.2901,3.2879,3.288,3.2881,3.2882,3.2947,3.2948,0,0,0,0,0,0,3.2811,3.2814,3.2851,3.2853,3.2826,3.2841,3.2843,3.2853,3.2863,3.2863,3.2853,3.2852,3.2871,3.2873,3.2876,3.2905,3.288,3.2882,3.2883,3.2946,3.2947,3.2948,0,0,0,0,0,0,3.281,3.2814,3.285,3.2833,3.2838,3.2842,3.2853,3.2853,3.2859,3.2865,3.2865,3.2859,3.2871,3.2874,3.2893,3.2905,3.2882,3.2884,3.2945,3.2946,3.2947,3.2963,0,0,0,0,0,0,3.2809,3.2814,3.2824,3.2834,3.2839,3.2869,3.2854,3.2854,3.2862,3.2861,3.287,3.2871,3.287,3.2891,3.2895,3.2907,3.2885,3.2944,3.2946,3.2947,3.2962,3.2965,3.2968,0,0,0,0,0,3.2807,3.2827,3.2825,3.2829,3.2851,3.2869,3.2872,3.2872,3.2863,3.2873,3.2876,3.287,3.2904,3.2893,3.2897,3.291,3.2943,3.2945,3.2947,3.296,3.2964,3.2968,0,0,0,0,0,0,3.2818,3.2828,3.2826,3.285,3.2859,3.2868,3.288,3.2876,3.2887,3.2885,3.2884,3.2886,3.2906,3.291,3.2899,3.2934,3.2922,3.2925,3.2931,3.2934,3.2937,3.2936,3.2886,0,0,0,0,0,3.2823,3.2838,3.2846,3.2866,3.2871,3.2875,3.2883,3.2882,3.2891,3.2894,3.2899,3.2907,3.2919,3.2927,3.2939,3.2962,3.2964,3.2973,3.2976,3.2979,3.2981,3.2993,3.2997,3.2954,3.2954,3.2954,0,0,3.2834,3.2842,3.2851,3.2869,3.2876,3.289,3.2878,3.2893,3.2904,3.2896,3.2915,3.2919,3.2928,3.295,3.2959,3.2953,3.2993,3.2981,3.2983,3.2984,3.2995,3.2999,3.3003,3.2955,3.2955,3.2955,0,0,3.2861,3.2869,3.2887,3.2894,3.2905,3.2907,3.2912,3.2921,3.2924,3.2943,3.2937,3.2949,3.297,3.2977,3.2983,3.3013,3.3008,3.3017,3.3032,3.3044,3.3047,3.305,3.306,3.3064,3.3019,3.3019,3.3019,0,3.2873,3.2895,3.2896,3.2912,3.292,3.2915,3.2933,3.2939,3.2953,3.2958,3.2951,3.2978,3.2984,3.3007,3.3014,3.3019,3.3023,3.3015,3.3047,3.305,3.3053,3.3062,3.3066,3.302,3.302,3.302,3.302,0,3.2909,3.2925,3.2938,3.2952,3.2961,3.2978,3.2981,3.299,3.2988,3.2991,3.301,3.3017,3.303,3.3035,3.3034,3.3058,3.3054,3.3047,3.3035,3.3058,3.3067,3.307,3.3022,3.3021,3.3021,3.3021,0,0,3.2943,3.2959,3.2963,3.2969,3.2981,3.2993,3.3009,3.3022,3.303,3.3039,3.3052,3.3071,3.3065,3.3072,3.3071,3.3081,3.3104,3.3073,3.3073,3.3078,3.313,3.3135,3.3139,3.3101,3.3102,3.3102,3.3129,0,3.2971,3.3,3.3002,3.3028,3.3042,3.3037,3.3051,3.306,3.3063,3.3074,3.3077,3.309,3.3081,3.3085,3.3096,3.3099,3.3114,3.3097,3.3112,3.3112,3.3109,3.3144,3.3149,3.3174,3.3133,3.3133,3.3134,0,3.3007,3.3019,3.3047,3.3056,3.3062,3.3075,3.3087,3.3098,3.3107,3.3109,3.3117,3.3114,3.313,3.3118,3.3139,3.3128,3.3134,3.3136,3.3137,3.3138,3.3124,3.3145,3.3182,3.3186,3.3139,3.3139,3.3139,0,3.3028,3.3051,3.3071,3.3076,3.3088,3.3097,3.3102,3.3111,3.3119,3.3129,3.3134,3.3146,3.3152,3.3161,3.3161,3.3153,3.3183,3.3171,3.3183,3.3183,3.3189,3.3189,3.3227,3.3195,3.3195,3.3194,3.3194,0,3.3058,3.3076,3.308,3.3092,3.3111,3.3112,3.3131,3.3135,3.3143,3.3155,3.3151,3.3162,3.3163,3.3174,3.3175,3.3192,3.3195,3.3196,3.3196,3.3196,3.3196,3.3199,3.3197,3.3195,3.3195,3.3195,3.3195,0,3.3085,3.3089,3.311,3.312,3.3123,3.3136,3.3144,3.3155,3.3158,3.3174,3.3177,3.3182,3.3195,3.3196,3.3212,3.3212,3.3232,3.3231,3.3229,3.3229,3.3241,3.324,3.3283,3.3289,3.3253,3.3253,3.3254,0,3.3104,3.3117,3.3129,3.3137,3.3143,3.3156,3.3165,3.3166,3.3175,3.3186,3.3195,3.3208,3.3219,3.324,3.3244,3.3255,3.3253,3.3268,3.3255,3.3255,3.3253,3.3252,3.3253,3.327,3.327,3.3271,3.3271,0,3.3136,3.3138,3.315,3.3164,3.3174,3.3184,3.3194,3.32,3.3203,3.3213,3.3226,3.3235,3.325,3.3263,3.3274,3.3279,3.3275,3.3275,3.3278,3.3278,3.3277,3.3277,3.3235,3.3274,3.3273,3.3273,3.3273,3.3273,3.3159,3.3171,3.3181,3.3195,3.3202,3.3211,3.3222,3.3227,3.3239,3.3252,3.3252,3.3267,3.3276,3.3291,3.3296,3.3307,3.3302,3.3307,3.3309,3.331,3.3311,3.3276,3.3309,3.3309,3.3309,3.3309,3.3309,0,3.3191,3.3198,3.3211,3.3225,3.3235,3.3232,3.3242,3.3251,3.3265,3.3273,3.3284,3.33,3.3312,3.3317,3.3329,3.3337,3.3335,3.334,3.3339,3.334,3.3315,3.331,3.3341,3.3341,3.3341,3.3341,3.3341,3.3341,3.3209,3.3228,3.3231,3.3253,3.3259,3.3275,3.3281,3.3289,3.3296,3.3314,3.3324,3.3328,3.3335,3.3347,3.3358,3.3359,3.3363,3.3368,3.3369,3.3345,3.3342,3.3339,3.3334,3.337,3.337,3.3393,3.3393,3.3393]}]]